Regional Weather Roundup
Issued by NWS

Home | Current Version | Previous Version | Graphics & Text | Print | Product List | Glossary Off
Versions: 1 2 3 4 5 6 7 8 9 10 11 12 13 14 15 16 17 18 19 20 21 22 23 24 25 26 27 28 29 30 31 32 33 34 35 36 37 38 39 40 41 42 43 44 45 46 47 48 49 50

000
ASUS43 KMPX 291101
RWRMN
WEATHER ROUNDUP FOR MINNESOTA
NATIONAL WEATHER SERVICE TWIN CITIES/CHANHASSEN MN
600 AM CDT SUN MAR 29 2015


NOTE: "FAIR" INDICATES FEW OR NO CLOUDS BELOW 12,000 FEET WITH NO
SIGNIFICANT WEATHER AND/OR OBSTRUCTIONS TO VISIBILITY. N/A MEANS
CURRENT SKY AND/OR WEATHER CONDITIONS ARE NOT AVAILABLE.

MNZ060>063-068>070-291200-
   Twin Cities Metro

CITY           SKY/WX    TMP DP  RH WIND       PRES   REMARKS
TWIN CITIES    CLOUDY    35  29  78 S16       29.70F WCI  25
ST PAUL        CLOUDY    34  30  85 S14G24    29.73F WCI  25
CRYSTAL        CLOUDY    36  30  79 S12G21    29.67F
BLAINE         CLOUDY    36  34  93 S15G22    29.68F
LAKEVILLE      CLOUDY    34  28  80 S12G20    29.71F WCI  25
EDEN PRAIRIE   CLOUDY    36  31  82 S16       29.68F
SOUTH ST PAUL  CLOUDY    34  32  92 S14G22    29.72F WCI  25
LAKE ELMO      MIX PCPN  34  32  93 S14G22    29.72F WCI  24
$$
MNZ001>005-007-008-013>017-022>024-027-028-291200-
   Northwest Minnesota

CITY           SKY/WX    TMP DP  RH WIND       PRES   REMARKS
BEMIDJI        DRIZZLE   36  34  94 SW10G20   29.43F
HALLOCK        CLOUDY    37  36  93 NW28G33   29.51R
ROSEAU         LGT RAIN  39  34  81 W12       29.42R
WARROAD        DRIZZLE   37  34  87 W8        29.42R
THIEF RVR FALL CLOUDY    39  39 100 NW17      29.43S
CROOKSTON      CLOUDY    39  37  93 N28G38    29.48R
FOSSTON        RAIN      36  34  93 SW16      29.43F
DETROIT LAKES  MOCLDY    37  36  93 SW13      29.46F
MOORHEAD       CLOUDY    43  43 100 W12       29.47F
PARK RAPIDS    CLOUDY    37  33  85 S14       29.46F
MAHNOMEN       CLOUDY    37  35  94 S17       29.44F
$$
MNZ006-009>011-018-025>026-291200-
   North Central Minnesota

CITY           SKY/WX    TMP DP  RH WIND       PRES   REMARKS
BAUDETTE       LGT RAIN  37  35  92 SW6       29.40S
FLAG ISLAND    LGT RAIN  37  36  93 W6        29.39F
INTL FALLS     LGT RAIN  35  32  88 VRB5      29.42F WCI  31
WASKISH        DRIZZLE   37  36  93 S7        29.42R
BIG FORK       MIX PCPN  34  30  86 S17G23    29.44F WCI  23
LONGVILLE      LGT RAIN  36  34  93 S13G18    29.48F
GRAND RAPIDS   CLOUDY    34  27  75 S15G23    29.47F WCI  24
ORR            LGT SNOW  34  27  75 S12G24    29.43F WCI  25
COOK           RAIN      34  23  64 S12G22    29.48S WCI  25
WALKER         LGT RAIN  35  32  90 S15G22    29.46S WCI  25
$$
MNZ012-019>021-037-291200-
   Northeast Minnesota

CITY           SKY/WX    TMP DP  RH WIND       PRES   REMARKS
DULUTH         LGTSLEET  35  25  66 SW22G31   29.56F WCI  23
ELY            MOCLDY    36  21  55 S15G22    29.49F
HIBBING        LGT SNOW  32  25  75 S9        29.51F WCI  24
EVELETH        LGT RAIN  34  23  64 S18G24    29.52F WCI  23
DULUTH HARBOR  LGT RAIN  37  27  65 SW23G29   29.60F
TWO HARBORS    MOCLDY    37  25  60 S10G17    29.56F
SILVER BAY     CLOUDY    36  19  51 S13G21    29.56F
GRAND MARAIS     N/A     34  27  75 SW10      29.62F WCI  26
G MARAIS ARPRT CLOUDY    28  18  64 S14G24    29.57F WCI  17
$$
MNZ029>031-032-039>041-046>048-054>057-064-291200-
   West Central Minnesota

CITY           SKY/WX    TMP DP  RH WIND       PRES   REMARKS
FERGUS FALLS   DRIZZLE   37  36  93 S12       29.52F
WHEATON        MOCLDY    45  37  76 W15G24    29.54F
MORRIS         CLOUDY    41  36  81 S13       29.53F
ALEXANDRIA     CLOUDY    38  32  79 S16G23    29.53F
ELBOW LAKE     CLOUDY    38  35  87 S13       29.51F
WADENA         CLOUDY    36  32  87 S15       29.48F
GLENWOOD       CLOUDY    37  34  87 S20       29.55F
APPLETON       PTCLDY    45  36  70 SW12      29.56F
BENSON         CLOUDY    39  34  81 SW9       29.56F
ORTONVILLE     CLEAR     46  37  71 W10       29.56R
MADISON        CLEAR     46  36  66 W16G22    29.58R
WILLMAR        CLOUDY    39  32  75 S5        29.60F
$$
MNZ033>034-036-042>043-049>051-058-059-291200-
   Central Minnesota

CITY           SKY/WX    TMP DP  RH WIND       PRES   REMARKS
ST CLOUD       CLOUDY    35  30  82 S16G26    29.60F WCI  25
SAUK CENTRE    CLOUDY    36  32  87 S14G21    29.56F
PAYNESVILLE    MOCLDY    33  31  91 SE16      29.59F WCI  23
AITKIN         CLOUDY    39  30  70 S16G26    29.53F
PINE RIVER     LGT RAIN  36  32  87 S14G22    29.55F
BRAINERD       CLOUDY    36  30  79 S20G25    29.54F
STAPLES        CLOUDY    36  30  80 S15       29.51F
LONG PRAIRIE   CLOUDY    34  32  93 S18G24    29.55F WCI  23
LITTLE FALLS   CLOUDY    36  30  80 S17       29.56F
LITCHFIELD     MOCLDY    36  34  93 CALM      29.61F
MAPLE LAKE     CLOUDY    37  32  85 S12G23    29.64F
$$
MNZ037-044-045-052-053-291200-
   East Central Minnesota

CITY           SKY/WX    TMP DP  RH WIND       PRES   REMARKS
PRINCETON      DRIZZLE   36  32  87 S17G24    29.63F
MORA           CLOUDY    34  30  86 S10       29.64F WCI  26
CAMBRIDGE      MIX PCPN  36  28  75 S13G20    29.63F
RUSH CITY      CLOUDY    33  29  86 S14       29.65F WCI  23
MOOSE LAKE     CLOUDY    34  27  75 S18G26    29.58F WCI  23
HINCKLEY       CLOUDY    34  30  86 S14G21    29.63F WCI  24
CLOQUET        MIX PCPN  34  27  75 S14G22    29.57F WCI  24
MCGREGOR       CLOUDY    36  30  80 S17G24    29.56F
$$
MNZ071>073-080-081-089-090-097-098-291200-
   Southwest Minnesota

CITY           SKY/WX    TMP DP  RH WIND       PRES   REMARKS
MONTEVIDEO     CLOUDY    43  37  81 W12       29.59F
GRANITE FALLS  CLOUDY    41  34  76 S12       29.61F
CANBY          CLEAR     43  34  71 SW15      29.62R
MARSHALL       CLEAR     43  30  61 W20       29.61F
REDWOOD FALLS  MOCLDY    40  33  76 S17       29.62F
OLIVIA         MOCLDY    37  34  87 S14       29.60F
PIPESTONE      CLEAR     39  34  81 W8        29.65F
WINDOM         PTCLDY    37  34  87 S15G22    29.67S
WORTHINGTON    PTCLDY    39  32  75 SW18G25   29.69S
JACKSON        PTCLDY    37  32  81 S16G25    29.69F
TRACY          PTCLDY    40  34  77 SW25G31   29.62F
SLAYTON        CLEAR     37  32  84 SW17      29.65F
$$
MNZ065>067-074>077-082>085-091>093-291200-
   South Central Minnesota

CITY           SKY/WX    TMP DP  RH WIND       PRES   REMARKS
MANKATO        MOCLDY    36  27  69 S22       29.70F
NEW ULM        MOCLDY    36  30  80 S16G25    29.66F
ST JAMES       MOCLDY    37  32  81 S21G30    29.68F
FAIRMONT       CLOUDY    36  28  75 S20       29.71S
GLENCOE        MOCLDY    37  33  87 S15G23    29.65F
FARIBAULT      CLOUDY    36  30  80 S15G21    29.71F
OWATONNA       CLOUDY    34  28  80 S18       29.70F WCI  23
WASECA         DRIZZLE   37  32  81 S20G26    29.72F
ALBERT LEA     CLOUDY    34  34 100 S21G30    29.72F WCI  22
$$
MNZ078>079-086>088-094>096-291200-
   Southeast Minnesota

CITY           SKY/WX    TMP DP  RH WIND       PRES   REMARKS
ROCHESTER      FRZ RAIN  33  27  78 S29G36    29.74F WCI  19
RED WING       MIX PCPN  34  28  80 S8        29.75F WCI  27
STANTON        CLOUDY    35  30  82 S13G21    29.71F WCI  26
DODGE CENTER   MIX PCPN  34  30  86 S21       29.70F WCI  22
WINONA         CLOUDY    36  23  60 S9G21     29.84S
AUSTIN         MIX PCPN  34  28  80 S17       29.75F WCI  23
PRESTON        MIX PCPN  32  26  78 S21G30    29.80F WCI  19
$$
ABBREVIATIONS USED IN REMARKS
   TC - TEMPERATURES IN CELSIUS
  WCI - WIND CHILL INDEX
   HX - HEAT INDEX
  VSB - VISIBILITY
$$


USA.gov is the U.S. government's official web portal to all federal, state and local government web resources and services.